Wind_Speed
19 23 26 27 28 28 28 29 30 29 29 28 28 27 24 22 19 14 14 16 14 13 16 18 21 22 19 17 16 12 8 5
20 22 28 30 30 29 29 30 31 32 31 29 28 27 26 23 20 16 17 18 16 16 18 19 20 22 21 19 16 12 8 7
22 22 27 30 30 30 29 30 31 32 32 31 30 29 27 24 21 16 18 18 18 17 20 20 21 20 20 19 16 12 8 7
26 24 28 30 33 33 33 32 33 34 34 34 33 32 29 27 24 19 21 20 19 21 22 23 24 25 22 19 17 13 10 6
28 27 27 30 34 35 36 35 36 37 36 36 35 33 32 29 28 23 24 23 22 23 24 24 25 25 24 21 18 17 12 9
30 29 29 30 34 38 38 38 38 39 37 37 37 36 36 33 29 25 24 24 25 25 26 26 27 27 25 23 21 18 13 10
32 31 31 31 32 38 40 40 40 41 38 38 39 38 36 34 31 28 24 26 26 27 29 30 29 28 26 25 23 19 16 12
33 32 31 31 31 35 40 42 44 41 38 39 40 39 39 37 34 29 25 29 28 29 32 33 31 30 28 26 24 19 15 13
33 35 34 32 32 35 38 40 42 40 43 43 43 43 42 38 33 30 29 31 31 33 34 34 32 30 27 24 21 16 15 14
33 40 40 37 36 39 37 38 40 42 44 43 46 46 46 39 37 33 31 33 35 36 36 35 33 31 28 24 19 17 17 16
29 39 43 42 42 35 30 30 36 38 42 41 49 49 46 40 38 36 34 36 37 38 36 35 34 31 30 27 23 21 21 19
29 31 41 42 39 33 32 30 32 37 45 48 44 51 44 43 34 39 34 35 38 40 40 37 34 35 33 28 24 22 20 18
26 28 40 44 36 36 32 30 33 38 46 49 45 46 44 42 36 40 38 39 40 43 41 40 38 37 37 29 23 20 18 18
29 35 41 34 31 30 27 24 28 35 39 46 43 46 47 47 40 40 38 43 43 44 45 44 42 42 39 36 21 18 17 18
14 21 26 22 28 26 26 27 25 33 41 42 44 46 55 54 42 39 41 43 44 44 47 48 48 44 42 27 17 12 27 18
24 15 7 13 21 23 26 25 26 30 43 36 39 44 50 50 33 45 46 43 47 50 50 48 49 49 46 40 29 23 22 19
21 20 17 15 14 18 25 28 23 34 32 28 30 30 44 41 38 49 48 48 49 50 50 51 49 50 54 48 35 21 34 34
26 26 21 18 18 16 16 26 28 27 28 25 28 32 36 35 45 54 58 49 48 49 49 52 52 53 49 50 48 40 36 36
25 24 20 16 18 20 22 20 18 29 28 20 20 26 32 30 38 49 48 44 54 51 54 52 55 54 51 49 49 42 36 34
21 24 29 23 20 22 26 26 26 26 25 29 28 27 27 26 31 37 43 45 50 47 51 52 56 57 53 48 51 41 36 34
Wind_Direction
196 198 203 206 205 203 201 200 199 199 201 201 199 199 200 197 194 191 183 180 174 164 165 169 164 162 163 171 173 173 172 180
204 201 204 206 206 206 204 202 200 200 203 206 206 203 202 200 200 197 199 187 177 172 172 174 167 169 173 183 180 178 166 148
213 212 209 209 208 204 203 204 203 204 206 206 208 206 203 203 206 210 200 188 179 174 179 179 173 177 181 189 191 184 175 183
218 215 211 210 209 207 205 204 204 206 207 208 209 208 206 205 209 210 199 191 181 177 182 182 181 182 179 188 195 195 194 183
220 218 214 213 211 209 208 205 205 207 208 208 211 208 207 206 214 204 200 191 187 181 183 181 183 185 184 188 201 205 200 192
224 222 219 214 215 213 211 210 208 209 211 210 209 210 209 209 222 209 205 196 191 188 185 182 185 189 191 192 199 204 203 197
231 226 226 222 214 216 216 215 214 215 211 210 212 213 212 212 215 219 205 200 195 190 187 186 186 188 191 198 195 196 203 207
232 234 230 224 219 217 219 220 219 218 215 217 217 217 219 220 219 220 214 200 195 194 190 190 190 194 194 193 193 194 204 221
239 238 233 230 225 222 220 225 226 225 223 221 222 222 223 219 220 222 215 201 194 192 191 194 194 193 197 193 192 196 211 214
241 233 233 229 226 221 223 227 231 226 225 222 225 224 222 215 220 216 212 198 196 195 197 195 196 196 197 190 193 199 207 209
237 227 228 227 224 227 233 238 242 243 242 232 226 227 226 222 218 215 207 200 195 197 199 204 196 197 205 199 199 198 201 206
249 239 226 223 222 229 236 243 245 250 254 244 233 222 228 220 221 215 213 200 195 198 200 200 209 199 189 187 189 195 203 211
234 234 224 220 227 232 230 237 240 243 249 245 243 227 222 214 218 209 204 207 202 200 200 202 197 199 190 173 174 190 197 199
224 219 218 226 232 245 251 244 256 250 250 243 241 230 226 224 214 215 215 202 201 202 201 196 201 198 188 174 150 162 187 199
215 215 221 238 245 244 245 247 247 242 245 239 228 226 219 238 213 211 213 213 208 207 206 209 201 197 205 191 163 188 173 190
39 37 337 263 252 250 253 254 257 246 237 243 241 239 222 212 232 216 216 219 209 207 211 212 212 208 197 207 211 206 174 170
14 11 9 357 329 297 269 254 258 250 247 242 242 249 238 232 223 230 218 214 213 212 210 212 220 218 211 207 213 205 198 178
344 338 339 326 324 323 314 277 259 256 249 247 244 250 243 236 227 222 220 212 216 214 217 216 221 221 222 218 216 207 197 193
342 335 336 332 318 313 303 299 296 267 246 255 270 266 253 245 239 231 224 234 218 217 216 218 221 223 225 222 217 219 215 207
338 333 327 318 313 303 291 282 279 278 276 271 267 270 272 266 250 249 238 227 231 221 215 217 221 223 228 223 220 216 222 220
Height
1484 1486 1489 1492 1494 1496 1499 1502 1506 1510 1514 1516 1515 1517 1521 1523 1524 1528 1530 1534 1537 1539 1539 1538 1537 1540 1544 1545 1545 1547 1549 1550
1481 1483 1486 1488 1490 1495 1497 1499 1502 1505 1510 1514 1516 1517 1518 1521 1523 1525 1528 1531 1535 1537 1538 1539 1538 1540 1542 1544 1546 1547 1548 1549
1479 1481 1484 1486 1489 1492 1496 1499 1501 1503 1508 1509 1514 1515 1517 1518 1521 1525 1527 1530 1533 1535 1535 1537 1539 1541 1542 1543 1545 1547 1548 1549
1473 1476 1479 1483 1485 1488 1491 1493 1495 1499 1501 1506 1507 1512 1514 1515 1519 1521 1524 1529 1531 1533 1534 1535 1535 1538 1541 1544 1546 1546 1547 1548
1467 1470 1474 1478 1481 1484 1486 1488 1490 1491 1494 1497 1504 1507 1510 1513 1515 1517 1521 1524 1528 1531 1533 1534 1534 1536 1538 1542 1546 1547 1547 1548
1463 1465 1467 1470 1475 1478 1482 1484 1485 1486 1490 1494 1496 1501 1505 1507 1511 1514 1519 1522 1525 1528 1530 1534 1535 1535 1536 1539 1544 1547 1546 1549
1457 1460 1462 1464 1467 1473 1475 1479 1482 1484 1486 1488 1491 1495 1500 1504 1508 1511 1514 1518 1523 1525 1526 1530 1534 1535 1536 1537 1540 1544 1546 1548
1455 1457 1459 1461 1462 1464 1469 1471 1474 1478 1482 1484 1487 1490 1493 1498 1502 1505 1509 1513 1519 1523 1522 1527 1531 1534 1536 1536 1538 1541 1546 1547
1449 1450 1453 1457 1459 1459 1461 1466 1470 1474 1475 1477 1481 1484 1488 1491 1496 1499 1503 1509 1513 1518 1519 1523 1528 1532 1535 1536 1538 1542 1545 1547
1441 1444 1444 1447 1450 1453 1457 1459 1465 1466 1469 1468 1474 1476 1480 1484 1489 1493 1497 1502 1508 1513 1514 1518 1524 1529 1532 1534 1538 1540 1544 1545
1430 1436 1438 1441 1444 1453 1453 1455 1459 1463 1464 1458 1465 1468 1473 1476 1482 1487 1491 1495 1501 1508 1513 1516 1519 1526 1531 1532 1534 1536 1541 1544
1425 1428 1432 1436 1442 1448 1448 1450 1451 1457 1462 1458 1455 1459 1462 1467 1475 1481 1486 1491 1495 1503 1508 1512 1516 1520 1527 1530 1533 1536 1538 1541
1421 1423 1426 1431 1441 1442 1442 1441 1445 1447 1450 1452 1451 1453 1454 1460 1466 1474 1478 1484 1489 1495 1501 1506 1511 1515 1521 1528 1532 1535 1537 1539
1420 1422 1420 1429 1435 1441 1440 1438 1439 1442 1443 1445 1444 1449 1448 1451 1456 1465 1472 1478 1483 1490 1493 1499 1507 1507 1513 1521 1529 1535 1534 1537
1424 1426 1428 1431 1433 1433 1434 1435 1431 1435 1436 1437 1440 1443 1445 1443 1447 1453 1464 1471 1476 1481 1487 1491 1496 1501 1507 1511 1520 1524 1528 1533
1426 1425 1428 1429 1430 1430 1429 1429 1427 1428 1430 1431 1436 1438 1430 1439 1439 1447 1455 1461 1467 1471 1477 1485 1490 1491 1502 1505 1507 1510 1518 1527
1429 1429 1427 1428 1427 1427 1427 1426 1426 1428 1430 1427 1430 1433 1431 1438 1438 1445 1447 1452 1458 1461 1468 1474 1481 1487 1492 1497 1503 1507 1508 1509
1429 1430 1427 1426 1425 1426 1425 1425 1424 1424 1425 1424 1424 1425 1428 1434 1435 1438 1430 1441 1450 1454 1459 1464 1470 1478 1487 1491 1495 1498 1501 1505
1427 1426 1424 1421 1420 1421 1423 1420 1419 1420 1413 1419 1421 1420 1420 1424 1427 1429 1428 1434 1441 1443 1449 1453 1462 1469 1477 1485 1491 1497 1502 1504
1422 1427 1422 1417 1415 1415 1418 1417 1414 1412 1413 1415 1416 1417 1416 1417 1421 1425 1428 1429 1433 1441 1437 1445 1451 1462 1468 1478 1485 1492 1498 1501